Voltar ao catálogo

IPoS-TDsM

AtivoSSO
NORAD 69913·PAYLOAD·🇺🇸 United States

Lançado Jul 7, 2026 de Vandenberg Space Force Base

Loading…

Próximas Passagens (próximas 24 horas)

TLE

AtualizadoSource: Space-Track

Época: Sep 14, 2026, 11:14 UTC

1 69913U 26156AW  26257.46815541  .00001230  00000-0  12990-3 0  9994
2 69913  97.7500 156.7167 0001356 306.1487  53.9605 14.91022171 10305

Acompanhe IPoS-TDsM em tempo real com AllMySat

Download on the App Store